West Bend, WI

12:29 PM CST on November 12, 2019 (GMT -0600)
West Bend Municipal

Weather History for KETB - August, 2019

Change the Weather History Date:

Wednesday, August 7, 2019

  Actual Average Record
Temperature  
Mean Temperature 70 °F -  
Max Temperature 82 °F 80 °F 96 °F (1941)
Min Temperature 59 °F 58 °F 41 °F (1989)
Cooling Degree Days 6    
Growing Degree Days 20 (Base 50)    
Moisture  
Dew Point 62 °F    
Average Humidity 75    
Maximum Humidity 100    
Minimum Humidity 48    
Precipitation  
Precipitation 0.43 in - - ()
Sea Level Pressure  
Sea Level Pressure 29.80 in    
Wind  
Wind Speed 4 mph (WSW)    
Max Wind Speed 17 mph    
Max Gust Speed 30 mph    
Visibility 10 miles    
Events Rain    
Averages and records for this station are not official NWS values.
T = Trace of Precipitation, MM = Missing Value Source: NWS Daily Summary

Daily Weather History Graph

Daily Weather History Graph

Search for Another Location

Airport or City:

Astronomy

Aug. 07, 2019 Rise Set
Actual Time 5:48 AM CDT 8:07 PM CDT
Civil Twilight 5:16 AM CDT 8:39 PM CDT
Nautical Twilight 4:37 AM CDT 9:18 PM CDT
Astronomical Twilight 3:53 AM CDT 10:02 PM CDT
Moon 1:33 PM CDT (8/7) No Moon Set
Length of Visible Light 15h 22m
Length of Day
14h 18m
Waxing Crescent, 50% of the Moon is Illuminated
Aug 7
Waxing Crescent
Aug 7
First Quarter
Aug 15
Full
Aug 23
Last Quarter
Aug 30
New

Hourly Weather History & Observations

Time (CDT) Temp. Heat Index Dew Point Humidity Pressure Visibility Wind Dir Wind Speed Gust Speed Precip Events Conditions
12:15 AM 64.4 °F - 62.6 °F 94% 29.85 in 10.0 mi Calm Calm - N/A   Clear
12:35 AM 64.4 °F - 62.6 °F 94% 29.85 in 10.0 mi Calm Calm - N/A   Clear
12:55 AM 62.6 °F - 60.8 °F 94% 29.84 in 10.0 mi Calm Calm - N/A   Clear
1:15 AM 62.6 °F - 62.6 °F 100% 29.84 in 10.0 mi Calm Calm - N/A   Clear
1:35 AM 60.8 °F - 60.8 °F 100% 29.84 in 10.0 mi Calm Calm - N/A   Clear
2:15 AM 62.6 °F - 60.8 °F 94% 29.84 in 10.0 mi Calm Calm - N/A   Clear
2:35 AM 60.8 °F - 60.8 °F 100% 29.83 in 10.0 mi Calm Calm - N/A   Clear
2:55 AM 60.8 °F - 60.8 °F 100% 29.84 in 10.0 mi Calm Calm - N/A   Clear
3:15 AM 60.8 °F - 60.8 °F 100% 29.84 in 10.0 mi Calm Calm - N/A   Clear
3:35 AM 59.0 °F - 59.0 °F 100% 29.84 in 10.0 mi Calm Calm - N/A   Clear
3:55 AM 60.8 °F - 59.0 °F 94% 29.84 in 10.0 mi Calm Calm - N/A   Scattered Clouds
4:15 AM 60.8 °F - 60.8 °F 100% 29.84 in 10.0 mi Calm Calm - N/A   Scattered Clouds
4:35 AM 60.8 °F - 60.8 °F 100% 29.83 in 10.0 mi Calm Calm - N/A   Scattered Clouds
4:55 AM 60.8 °F - 60.8 °F 100% 29.84 in 10.0 mi Calm Calm - N/A   Clear
5:15 AM 59.0 °F - 59.0 °F 100% 29.84 in 10.0 mi Calm Calm - N/A   Clear
5:35 AM 59.0 °F - 59.0 °F 100% 29.84 in 10.0 mi Calm Calm - N/A   Clear
5:55 AM 59.0 °F - 59.0 °F 100% 29.84 in 10.0 mi Calm Calm - N/A   Clear
6:15 AM 59.0 °F - 59.0 °F 100% 29.84 in 10.0 mi Calm Calm - N/A   Clear
6:35 AM 60.8 °F - 60.8 °F 100% 29.84 in 10.0 mi Calm Calm - N/A   Clear
6:55 AM 62.6 °F - 62.6 °F 100% 29.85 in 10.0 mi Calm Calm - N/A   Clear
7:15 AM 64.4 °F - 62.6 °F 94% 29.84 in 10.0 mi Calm Calm - N/A   Clear
7:35 AM 68.0 °F - 64.4 °F 88% 29.84 in 10.0 mi Calm Calm - N/A   Clear
7:55 AM 69.8 °F - 64.4 °F 83% 29.84 in 10.0 mi Calm Calm - N/A   Clear
8:15 AM 71.6 °F - 64.4 °F 78% 29.84 in 10.0 mi SW 3.5 mph - N/A   Clear
8:35 AM 73.4 °F - 64.4 °F 73% 29.84 in 10.0 mi West 4.6 mph - N/A   Clear
8:55 AM 73.4 °F - 64.4 °F 73% 29.84 in 10.0 mi West 6.9 mph - N/A   Clear
9:15 AM 75.2 °F - 64.4 °F 69% 29.83 in 10.0 mi West 6.9 mph - N/A   Clear
9:35 AM 77.0 °F - 64.4 °F 65% 29.83 in 10.0 mi WNW 8.1 mph - N/A   Clear
9:55 AM 77.0 °F - 64.4 °F 65% 29.83 in 10.0 mi West 5.8 mph - N/A   Clear
10:15 AM 78.8 °F - 64.4 °F 61% 29.83 in 10.0 mi West 8.1 mph - N/A   Clear
10:35 AM 78.8 °F - 62.6 °F 57% 29.83 in 10.0 mi West 6.9 mph - N/A   Clear
10:55 AM 78.8 °F - 62.6 °F 57% 29.83 in 10.0 mi West 8.1 mph - N/A   Clear
11:15 AM 80.6 °F 81.8 °F 62.6 °F 54% 29.83 in 10.0 mi West 10.4 mph - N/A   Clear
11:55 AM 80.6 °F 81.5 °F 60.8 °F 51% 29.83 in 10.0 mi SW 11.5 mph - N/A   Clear
12:15 PM 80.6 °F 81.8 °F 62.6 °F 54% 29.83 in 10.0 mi WSW 9.2 mph - N/A   Scattered Clouds
12:35 PM 80.6 °F 81.8 °F 62.6 °F 54% 29.82 in 10.0 mi SW 12.7 mph 23.0 mph N/A   Scattered Clouds
12:55 PM 80.6 °F 81.5 °F 60.8 °F 51% 29.82 in 10.0 mi WSW 11.5 mph - N/A   Scattered Clouds
1:15 PM 80.6 °F 81.5 °F 60.8 °F 51% 29.81 in 10.0 mi West 11.5 mph 17.3 mph N/A   Mostly Cloudy
1:35 PM 82.4 °F 82.9 °F 60.8 °F 48% 29.80 in 10.0 mi WSW 13.8 mph 18.4 mph N/A   Mostly Cloudy
1:55 PM 82.4 °F 82.9 °F 60.8 °F 48% 29.80 in 10.0 mi WSW 10.4 mph - N/A   Mostly Cloudy
2:15 PM 80.6 °F 81.5 °F 60.8 °F 51% 29.79 in 10.0 mi WSW 13.8 mph - N/A   Mostly Cloudy
2:35 PM 82.4 °F 83.4 °F 62.6 °F 51% 29.79 in 10.0 mi WSW 10.4 mph 16.1 mph N/A   Scattered Clouds
2:55 PM 80.6 °F 81.8 °F 62.6 °F 54% 29.78 in 10.0 mi SW 11.5 mph 18.4 mph N/A   Scattered Clouds
3:15 PM 82.4 °F 83.4 °F 62.6 °F 51% 29.78 in 10.0 mi WSW 12.7 mph 19.6 mph N/A   Clear
3:35 PM 82.4 °F 83.4 °F 62.6 °F 51% 29.78 in 10.0 mi WSW 12.7 mph 17.3 mph N/A   Scattered Clouds
3:55 PM 82.4 °F 83.4 °F 62.6 °F 51% 29.78 in 10.0 mi WSW 8.1 mph 18.4 mph N/A   Scattered Clouds
4:15 PM 82.4 °F 83.4 °F 62.6 °F 51% 29.77 in 10.0 mi SW 11.5 mph - N/A   Scattered Clouds
4:55 PM 80.6 °F 81.8 °F 62.6 °F 54% 29.76 in 10.0 mi WSW 12.7 mph 17.3 mph N/A   Scattered Clouds
5:15 PM 80.6 °F 81.8 °F 62.6 °F 54% 29.76 in 10.0 mi WSW 10.4 mph 17.3 mph N/A   Clear
5:35 PM 78.8 °F - 62.6 °F 57% 29.75 in 10.0 mi SW 10.4 mph - N/A   Clear
5:55 PM 80.6 °F 82.3 °F 64.4 °F 58% 29.75 in 10.0 mi SW 8.1 mph - N/A   Clear
6:15 PM 80.6 °F 82.3 °F 64.4 °F 58% 29.76 in 10.0 mi SW 5.8 mph - N/A   Clear
6:35 PM 80.6 °F 82.3 °F 64.4 °F 58% 29.75 in 10.0 mi WSW 9.2 mph - N/A   Clear
6:55 PM 78.8 °F - 64.4 °F 61% 29.75 in 10.0 mi SW 9.2 mph 16.1 mph N/A   Clear
7:15 PM 78.8 °F - 64.4 °F 61% 29.73 in 10.0 mi SW 10.4 mph - N/A   Clear
7:35 PM 78.8 °F - 64.4 °F 61% 29.73 in 10.0 mi SW 12.7 mph - N/A   Clear
7:55 PM 77.0 °F - 64.4 °F 65% 29.72 in 10.0 mi SW 9.2 mph - N/A   Clear
8:15 PM 77.0 °F - 64.4 °F 65% 29.71 in 10.0 mi SW 9.2 mph - N/A   Clear
8:35 PM 77.0 °F - 64.4 °F 65% 29.71 in 10.0 mi SW 11.5 mph - N/A   Clear
8:55 PM 77.0 °F - 64.4 °F 65% 29.74 in 10.0 mi SW 9.2 mph - N/A   Scattered Clouds
9:15 PM 77.0 °F - 64.4 °F 65% 29.73 in 10.0 mi SW 11.5 mph - N/A   Mostly Cloudy
9:35 PM 68.0 °F - 62.6 °F 83% 29.79 in 2.0 mi North 17.3 mph 29.9 mph 0.16 in Rain Heavy Rain
9:55 PM 64.4 °F - 62.6 °F 94% 29.79 in 4.0 mi WNW 9.2 mph 17.3 mph 0.37 in Rain Heavy Rain
10:15 PM 62.6 °F - 62.6 °F 100% 29.77 in 10.0 mi West 3.5 mph - 0.04 in Rain Rain
10:35 PM 62.6 °F - 62.6 °F 100% 29.77 in 10.0 mi WSW 3.5 mph - 0.06 in Rain Rain
11:15 PM 62.6 °F - 62.6 °F 100% 29.78 in 10.0 mi SW 5.8 mph - N/A   Scattered Clouds
11:35 PM 62.6 °F - 62.6 °F 100% 29.79 in 10.0 mi SW 4.6 mph - N/A   Scattered Clouds
11:55 PM 62.6 °F - 62.6 °F 100% 29.79 in 10.0 mi WSW 4.6 mph - N/A   Scattered Clouds